HST

Last updated on Sun Nov 16 2025 00:02:54 GMT+0000 (Coordinated Universal Time)

1 20580U 90037B 25319.48708336 .00008635 00000+0 30346-3 0 9993 2 20580 28.4676 97.9071 0001370 300.4143 59.6317 15.27530304755827
UTC large
Height (km)
Speed (km/s)
/
Latitude / Longitude
Inclination (degrees)
Orbital Period (minutes)
Azimuth
Elevation
Range (km)
Doppler Factor

Next 0 passes for location: London (51.5072 / 0.1276)

Sorry there are no passes over London.